Wind_Speed
14 13 13 13 13 13 13 13 13 13 13 13 13 12 13 13 13 13 12 12 13 13 13 13 12 12 12 12 12 12 12 11 11 11 11 11 11 11 11 11 10 10 10
15 15 15 15 14 14 15 15 15 15 15 15 15 15 15 15 15 15 15 14 14 14 14 14 15 15 14 14 14 13 13 13 13 13 13 13 13 13 12 12 12 12 12
17 17 16 16 16 16 16 16 16 16 16 16 16 16 16 16 16 17 17 16 16 16 16 16 16 16 16 16 16 16 16 15 15 15 15 15 15 15 15 15 14 14 14
18 18 18 18 18 17 17 17 18 18 18 18 18 18 18 18 18 19 19 19 19 18 18 18 18 18 18 19 18 18 18 18 17 17 17 17 17 17 17 17 17 16 16
20 20 20 19 19 19 19 19 19 20 20 20 20 20 20 21 21 21 21 21 21 21 20 20 20 20 20 20 20 20 20 20 20 20 19 19 19 19 19 19 19 18 18
21 21 21 21 20 21 21 21 21 21 22 22 22 23 23 23 23 23 23 23 23 23 23 23 22 22 22 22 22 22 22 22 22 22 22 22 21 21 21 21 20 20 20
22 22 22 22 21 21 21 21 22 22 23 23 23 24 24 24 25 25 25 25 24 24 24 24 24 24 24 24 24 23 23 23 23 24 24 24 24 23 23 23 22 22 22
23 23 22 22 22 23 23 23 23 23 24 24 25 25 25 26 26 27 27 27 27 27 27 26 26 26 26 26 25 25 25 25 25 25 25 25 25 25 25 25 25 24 24
25 24 24 23 23 23 24 24 25 25 26 26 26 26 27 27 27 27 27 28 28 29 29 29 29 29 28 28 28 28 28 28 28 27 27 26 26 27 27 27 26 26 27
26 25 25 24 24 24 24 25 26 26 26 27 27 28 28 29 29 29 28 29 29 29 30 31 31 31 31 31 31 31 31 31 31 30 30 29 29 29 28 28 28 28 28
26 25 25 25 25 25 25 25 26 26 26 27 28 28 29 29 30 30 30 31 31 31 32 32 33 33 33 33 33 33 33 33 33 33 32 32 32 32 32 31 31 30 30
26 26 26 26 27 27 27 27 27 27 28 28 29 29 29 30 31 31 32 32 32 33 33 33 33 34 35 35 35 36 36 36 36 35 35 35 35 35 35 34 34 33 32
27 27 27 27 27 27 28 28 28 29 29 30 30 31 31 32 32 32 32 32 32 32 33 33 33 34 35 35 36 36 37 37 37 37 37 37 37 37 37 37 36 36 35
27 27 27 27 27 28 29 29 30 30 30 30 30 31 31 32 32 33 33 33 33 33 33 34 34 34 34 35 35 36 36 37 37 37 38 38 38 38 38 38 38 38 37
28 28 28 28 28 29 29 29 29 29 29 30 31 31 32 32 33 33 33 33 34 34 34 34 35 35 35 35 36 36 37 37 38 38 38 38 38 39 39 39 39 39 39
28 28 28 29 28 29 29 29 29 29 30 31 32 32 32 33 33 34 34 34 35 35 35 34 34 35 36 36 36 37 37 38 39 39 39 39 39 39 40 41 41 41 41
29 29 29 29 29 29 30 31 31 31 32 32 32 32 32 32 33 33 34 34 35 35 34 34 34 35 36 36 36 36 37 38 38 39 39 40 40 41 41 41 42 42 42
29 29 29 30 30 30 31 31 32 32 32 32 32 32 32 32 32 33 33 33 34 34 34 35 35 35 36 36 37 37 37 38 38 39 40 41 42 42 42 42 42 43 43
29 29 30 30 31 31 31 31 32 32 32 32 32 32 32 32 32 32 32 33 33 34 34 35 35 35 36 36 37 38 38 39 39 40 41 41 42 42 42 43 43 44 44
30 30 31 31 32 32 32 32 33 33 33 33 32 32 32 33 32 32 33 33 33 34 34 35 36 36 36 37 38 38 39 39 40 40 41 42 43 44 44 44 45 46 46
31 32 32 32 32 33 33 33 33 33 32 33 33 33 33 33 33 33 33 33 34 34 35 36 36 36 37 38 38 38 38 39 39 40 41 42 44 45 46 46 47 48 48
31 32 33 33 33 33 33 33 33 33 33 33 33 33 33 33 33 33 33 33 34 34 35 36 37 37 38 38 38 37 37 37 39 40 42 43 43 44 45 46 47 48 48
31 32 33 34 34 34 34 34 34 33 33 34 34 34 33 33 33 33 33 34 35 35 36 37 37 37 38 38 39 39 39 39 39 40 41 42 43 44 45 46 46 47 48
31 32 33 33 33 34 34 34 34 33 33 33 33 33 33 33 34 34 34 35 36 37 37 37 37 38 38 39 39 40 40 40 39 39 41 42 42 43 44 45 45 45 46
32 32 33 33 33 34 34 34 34 34 34 34 34 35 35 36 36 36 37 38 39 39 38 38 39 39 39 40 40 40 41 40 40 39 39 40 41 42 42 43 44 44 44
31 32 33 34 34 34 35 35 35 36 36 36 36 36 37 38 38 38 39 39 40 40 40 40 40 41 41 41 41 41 41 41 41 41 41 40 41 41 41 42 42 44 44
Wind_Direction
254 255 257 258 260 263 265 267 269 271 273 275 277 279 280 281 283 284 284 284 284 282 281 281 280 279 279 279 280 278 276 274 273 273 273 272 271 270 269 269 270 270 270
255 257 259 261 264 266 268 269 270 271 272 274 276 277 278 279 281 281 282 282 282 282 281 280 279 278 278 278 278 278 278 276 275 274 272 271 271 271 270 269 269 269 269
256 258 260 263 266 268 270 271 272 273 274 274 275 276 277 278 279 280 281 281 281 281 281 280 280 279 277 277 276 276 277 276 276 274 273 273 272 271 270 269 269 269 269
257 259 261 263 266 268 270 272 274 275 275 275 276 276 277 278 279 280 280 281 281 281 280 280 280 279 278 277 276 275 275 275 275 274 273 273 273 272 271 269 269 268 268
257 259 261 263 265 267 270 272 274 276 276 276 276 276 277 278 278 279 280 281 281 281 280 280 279 278 277 276 276 275 274 273 273 273 273 272 272 272 271 270 269 268 267
256 258 260 263 266 269 271 273 274 276 277 277 276 276 277 277 278 279 280 281 281 280 279 279 278 277 277 276 275 275 275 274 273 272 271 271 271 271 271 271 270 269 268
255 257 260 263 267 270 272 273 275 276 278 279 279 279 278 278 278 278 278 279 280 280 279 279 278 278 277 276 276 275 275 274 274 274 273 272 271 271 270 270 269 269 269
254 258 262 264 267 270 272 274 275 277 279 280 280 280 280 280 280 279 279 278 278 278 277 278 278 277 276 275 275 274 274 274 274 274 274 273 272 271 270 270 270 269 269
255 259 261 264 267 270 272 274 275 277 278 279 279 280 281 281 282 282 281 280 279 278 277 277 277 276 275 274 274 273 274 273 273 273 274 273 273 272 271 270 270 270 270
256 259 261 263 267 270 273 276 277 278 279 280 280 281 281 281 281 281 282 282 281 280 278 277 276 276 275 275 274 273 273 272 272 273 273 272 272 271 271 271 270 269 270
255 257 261 264 267 270 274 276 278 279 280 281 282 283 282 281 281 281 281 281 281 281 280 279 277 276 275 274 274 273 272 272 272 272 271 271 271 271 271 270 270 269 269
255 258 262 265 268 272 274 276 278 279 280 281 282 283 284 283 282 282 282 282 281 280 280 279 278 277 276 274 273 273 272 272 272 271 271 271 270 270 271 270 270 269 269
255 259 263 265 269 272 275 277 278 280 281 282 282 283 284 283 282 282 282 282 281 281 281 280 280 280 278 276 275 274 273 271 270 270 270 270 270 270 271 271 271 270 269
257 260 263 266 269 273 276 278 280 281 282 282 283 285 286 285 284 282 281 281 280 281 281 281 281 280 279 278 277 276 274 272 270 270 270 270 269 270 270 271 270 270 270
258 261 264 268 271 274 276 278 280 281 282 282 284 286 287 287 285 283 282 281 280 280 280 280 281 280 280 280 278 276 275 273 272 271 269 269 269 268 268 269 270 269 269
259 263 265 269 272 274 276 278 280 281 283 284 285 286 287 287 286 284 283 282 282 281 281 281 281 281 281 281 279 278 276 274 273 271 269 269 269 268 269 269 269 269 268
260 264 266 269 271 274 276 278 280 282 284 285 286 287 287 287 286 285 285 284 283 282 281 281 282 282 282 281 281 280 278 275 274 272 270 269 268 268 268 269 269 269 268
262 264 266 269 272 275 276 278 281 282 284 285 286 287 287 287 287 286 286 285 285 284 282 281 282 282 283 283 282 280 279 278 276 275 273 271 269 268 268 269 269 268 268
262 264 267 270 272 274 276 278 280 282 284 286 287 288 287 288 288 288 287 287 286 285 284 283 283 284 284 284 284 282 280 278 278 276 274 272 270 269 270 269 268 269 269
262 265 268 270 272 274 276 278 280 282 284 286 286 286 286 287 288 288 288 288 287 287 287 286 286 286 285 285 284 283 281 279 278 277 275 272 271 270 269 269 269 269 269
265 267 268 271 273 275 277 279 281 282 283 284 285 285 286 287 288 288 289 288 288 288 288 288 287 287 287 286 284 283 282 281 279 277 276 275 273 272 271 270 270 270 269
265 266 268 270 273 275 277 279 281 282 282 284 285 285 286 287 288 289 289 289 290 290 291 290 289 289 288 286 285 283 283 283 282 280 278 277 276 275 273 272 272 271 269
267 268 269 271 273 276 277 278 280 281 283 284 285 286 286 288 289 291 291 291 291 292 292 292 291 290 289 288 286 284 283 282 282 282 281 280 278 277 275 274 274 273 271
269 270 271 273 274 276 277 278 279 281 282 283 284 285 286 288 289 290 291 291 292 292 292 292 291 291 290 289 288 287 286 285 283 281 281 281 280 279 277 276 275 274 273
270 271 272 273 275 276 277 278 279 280 281 282 283 285 286 288 289 290 291 292 292 293 293 293 292 291 291 291 289 288 287 285 284 283 281 281 281 281 279 277 277 275 275
272 273 274 275 276 276 276 277 279 281 282 283 284 285 287 288 290 291 292 293 293 293 294 293 293 292 292 291 290 289 287 286 285 284 283 281 281 280 280 278 277 275 275
Height
5872 5872 5873 5874 5875 5875 5876 5876 5877 5877 5877 5877 5877 5877 5877 5877 5876 5876 5876 5876 5875 5875 5875 5875 5875 5875 5874 5874 5874 5874 5874 5874 5874 5874 5874 5874 5874 5874 5874 5874 5874 5874 5874
5870 5870 5871 5872 5873 5873 5874 5874 5875 5875 5875 5875 5875 5875 5875 5874 5874 5874 5874 5874 5873 5873 5873 5873 5873 5873 5872 5872 5872 5872 5872 5872 5872 5872 5872 5872 5872 5872 5872 5872 5872 5872 5872
5867 5868 5869 5870 5870 5871 5871 5872 5872 5872 5872 5872 5872 5872 5872 5872 5872 5872 5871 5871 5871 5871 5870 5870 5870 5870 5870 5870 5870 5870 5870 5870 5870 5870 5870 5870 5870 5870 5870 5869 5870 5870 5870
5864 5865 5866 5867 5868 5868 5869 5869 5869 5869 5869 5869 5869 5869 5869 5869 5869 5869 5868 5868 5868 5868 5868 5867 5867 5867 5867 5867 5867 5867 5867 5867 5867 5867 5867 5867 5867 5867 5867 5867 5867 5867 5867
5861 5862 5863 5864 5864 5865 5865 5866 5866 5866 5866 5866 5866 5866 5866 5865 5865 5865 5865 5865 5865 5864 5864 5864 5864 5864 5863 5863 5863 5863 5863 5863 5863 5864 5864 5864 5864 5864 5864 5864 5864 5864 5864
5858 5859 5860 5860 5861 5861 5862 5862 5862 5862 5862 5862 5862 5862 5862 5861 5861 5861 5861 5861 5861 5860 5860 5860 5860 5860 5860 5859 5859 5859 5859 5859 5859 5859 5860 5860 5860 5860 5860 5860 5860 5860 5860
5854 5855 5856 5856 5857 5858 5858 5858 5858 5858 5858 5858 5858 5858 5857 5857 5857 5857 5857 5857 5856 5856 5856 5856 5855 5855 5855 5855 5855 5855 5855 5855 5855 5855 5855 5855 5856 5856 5856 5856 5856 5856 5856
5850 5851 5852 5853 5853 5854 5854 5854 5854 5854 5854 5854 5853 5853 5853 5853 5852 5852 5852 5851 5851 5851 5851 5851 5850 5850 5850 5850 5850 5850 5850 5850 5850 5850 5850 5850 5850 5850 5851 5851 5851 5851 5851
5845 5847 5848 5848 5849 5849 5849 5849 5849 5849 5849 5849 5848 5848 5848 5848 5847 5847 5846 5846 5846 5845 5845 5845 5845 5845 5844 5844 5844 5844 5844 5844 5845 5845 5845 5845 5845 5845 5845 5845 5846 5846 5846
5841 5842 5843 5844 5844 5845 5845 5845 5845 5844 5844 5843 5843 5843 5842 5842 5842 5841 5841 5840 5840 5839 5839 5839 5839 5838 5838 5838 5838 5838 5838 5838 5839 5839 5839 5839 5839 5839 5839 5840 5840 5840 5840
5836 5837 5838 5839 5840 5840 5840 5840 5840 5839 5839 5838 5838 5837 5837 5836 5836 5835 5835 5834 5833 5833 5832 5832 5832 5831 5831 5831 5831 5831 5831 5831 5832 5832 5832 5833 5833 5833 5833 5833 5834 5834 5834
5831 5832 5833 5834 5835 5835 5835 5835 5834 5834 5834 5833 5832 5831 5831 5830 5829 5828 5828 5827 5827 5826 5825 5825 5824 5824 5823 5823 5823 5823 5823 5823 5824 5824 5825 5825 5825 5825 5826 5826 5826 5827 5827
5826 5827 5828 5829 5829 5830 5829 5829 5829 5828 5828 5827 5826 5826 5825 5823 5822 5821 5821 5820 5819 5819 5818 5817 5816 5816 5815 5815 5815 5815 5815 5815 5815 5816 5816 5817 5817 5817 5818 5818 5819 5819 5820
5821 5822 5823 5824 5824 5824 5824 5823 5823 5822 5822 5821 5820 5819 5818 5816 5815 5814 5814 5813 5812 5812 5811 5810 5809 5808 5807 5807 5806 5806 5806 5806 5806 5807 5808 5808 5808 5809 5809 5809 5810 5811 5811
5816 5817 5818 5818 5818 5818 5818 5817 5817 5816 5816 5815 5814 5812 5811 5809 5808 5807 5806 5805 5805 5804 5803 5802 5801 5800 5799 5799 5798 5797 5797 5797 5797 5798 5798 5799 5799 5800 5800 5800 5800 5801 5802
5810 5811 5812 5812 5812 5812 5812 5812 5811 5810 5809 5808 5807 5806 5804 5802 5801 5800 5799 5797 5797 5796 5795 5794 5793 5792 5791 5791 5789 5789 5788 5788 5788 5788 5788 5789 5789 5790 5790 5790 5791 5791 5792
5804 5805 5806 5806 5807 5807 5806 5806 5805 5804 5803 5802 5800 5799 5797 5795 5794 5792 5791 5790 5788 5787 5787 5786 5785 5784 5783 5782 5781 5780 5779 5779 5778 5779 5779 5779 5779 5780 5780 5780 5780 5781 5781
5798 5799 5800 5801 5801 5801 5800 5799 5798 5797 5796 5795 5794 5792 5790 5789 5787 5785 5784 5782 5781 5780 5779 5778 5777 5776 5775 5773 5772 5771 5770 5770 5769 5769 5769 5769 5769 5769 5769 5770 5770 5770 5771
5792 5793 5794 5794 5794 5794 5793 5793 5792 5790 5789 5788 5787 5785 5784 5782 5780 5778 5777 5775 5773 5772 5771 5770 5769 5767 5766 5765 5763 5762 5761 5760 5759 5759 5759 5759 5758 5758 5758 5759 5759 5760 5760
5786 5787 5787 5787 5787 5787 5787 5786 5785 5784 5783 5781 5780 5778 5777 5775 5773 5771 5770 5768 5766 5765 5763 5762 5760 5759 5758 5756 5754 5753 5751 5750 5749 5749 5748 5748 5748 5747 5747 5747 5748 5749 5749
5780 5780 5780 5781 5781 5780 5780 5779 5778 5777 5776 5775 5773 5771 5769 5768 5766 5764 5762 5760 5758 5757 5755 5754 5752 5750 5749 5747 5745 5744 5742 5740 5739 5739 5738 5737 5737 5736 5736 5736 5736 5737 5737
5773 5773 5773 5774 5774 5773 5773 5772 5771 5770 5769 5767 5766 5764 5762 5760 5758 5756 5755 5753 5751 5749 5747 5745 5743 5741 5739 5737 5736 5734 5733 5732 5730 5728 5727 5726 5726 5725 5725 5724 5724 5724 5724
5766 5766 5767 5767 5766 5766 5765 5765 5764 5763 5761 5760 5759 5757 5755 5753 5751 5749 5747 5745 5743 5741 5739 5737 5735 5732 5730 5728 5726 5725 5723 5722 5721 5719 5717 5716 5715 5714 5713 5713 5712 5712 5712
5759 5759 5760 5759 5759 5758 5758 5757 5756 5755 5754 5753 5751 5750 5748 5746 5744 5741 5739 5737 5735 5733 5731 5728 5726 5723 5721 5719 5716 5714 5713 5711 5710 5710 5707 5705 5704 5702 5701 5700 5700 5699 5699
5753 5752 5752 5752 5752 5751 5750 5749 5748 5747 5746 5745 5743 5742 5740 5738 5736 5733 5731 5729 5726 5724 5722 5719 5716 5714 5711 5709 5707 5704 5702 5700 5699 5698 5697 5695 5693 5691 5690 5688 5687 5687 5686
5746 5745 5745 5745 5744 5743 5743 5742 5741 5740 5738 5737 5735 5734 5732 5730 5727 5725 5722 5720 5717 5715 5712 5710 5707 5704 5701 5699 5696 5694 5692 5690 5688 5686 5686 5684 5682 5680 5678 5676 5675 5675 5674